Probability
0 0 0 0 0 0 0 0 0 0 0 0 0 0 0 0 0 0 0 0 0 0 0 0 0 0 0 0 0 0 0 0 0 0 0 0 0 0 0 0 0 0 0
0 0 0 0 0 0 0 0 0 0 0 0 0 0 0 0 0 0 0 0 0 0 0 0 0 0 0 0 0 0 0 0 0 0 0 0 0 0 0 0 0 0 0
0 0 0 0 0 0 0 0 0 0 0 0 0 0 0 0 0 0 0 0 0 0 0 0 0 0 0 0 0 0 0 0 0 0 0 0 0 0 0 0 0 0 0
0 0 0 0 0 0 0 0 0 0 0 0 0 0 0 0 0 0 0 0 0 0 0 0 0 0 0 0 0 0 0 0 0 0 0 0 0 0 0 0 0 0 0
0 0 0 0 0 0 0 0 0 0 0 0 0 0 0 0 0 0 0 0 0 0 0 0 0 0 0 0 0 0 0 0 0 0 0 0 0 0 0 0 0 0 0
0 0 0 0 0 0 0 0 0 0 0 0 0 0 0 0 0 0 0 0 0 0 0 0 0 0 0 0 0 0 0 0 0 0 0 0 0 0 0 0 0 0 0
0 0 0 0 0 0 0 0 0 0 0 0 0 0 0 0 0 0 0 0 0 0 0 0 0 0 0 0 0 0 0 0 0 0 0 0 0 0 0 0 0 0 0
0 0 0 0 0 0 0 0 0 0 0 0 0 0 0 0 0 0 0 0 0 0 0 0 0 0 0 0 0 0 0 0 0 0 0 0 0 0 0 0 0 0 0
0 0 0 0 0 0 0 0 0 0 0 0 0 0 0 0 0 0 0 0 0 0 0 0 0 0 0 0 0 0 0 0 0 0 0 0 0 0 0 0 0 0 0
0 0 0 0 0 0 0 0 0 0 0 0 0 0 0 0 0 0 0 0 0 0 0 0 0 0 0 0 0 0 0 0 0 0 0 0 0 0 0 0 0 0 0
0 0 0 0 0 0 0 0 0 0 0 0 0 0 0 0 0 0 0 0 0 0 0 0 0 0 0 0 0 0 0 0 0 0 0 0 0 0 0 0 0 0 0
0 0 0 0 0 0 0 0 0 0 0 0 0 0 0 0 0 0 0 0 0 0 0 0 0 0 0 0 0 0 0 0 0 0 0 0 0 0 0 0 0 0 0
0 0 0 0 0 0 0 0 0 0 0 0 0 0 0 0 0 0 0 0 0 0 0 0 0 0 0 0 0 0 0 0 0 0 0 0 0 0 0 0 0 0 0
0 0 0 0 0 0 0 0 0 0 0 0 0 0 0 0 0 0 0 0 0 0 0 0 0 0 0 0 0 0 0 0 0 0 0 0 0 0 0 0 0 0 0
0 0 0 0 0 0 0 0 0 0 0 0 0 0 0 0 0 0 0 0 0 0 0 0 0 0 0 0 0 0 0 0 0 0 0 0 0 0 0 0 0 0 0
0 0 0 0 0 0 0 0 0 0 0 0 0 0 0 0 0 0 0 0 0 0 0 0 0 0 0 0 0 0 0 0 0 0 0 0 0 0 0 0 0 0 0
0 0 0 0 0 0 0 0 0 0 0 0 0 0 0 0 0 0 0 0 0 0 0 0 0 0 0 0 0 0 0 0 0 0 0 0 0 0 0 0 0 0 0
0 0 0 0 0 0 0 0 0 0 0 0 0 0 0 0 0 0 0 0 0 0 0 0 0 0 0 0 0 0 0 0 0 0 0 0 0 0 0 0 0 0 0
0 0 0 0 0 0 0 0 0 0 0 0 0 0 0 0 0 0 0 0 0 0 0 0 0 0 0 0 0 0 0 0 0 0 0 0 0 0 0 0 0 0 0
0 0 0 0 0 0 0 0 0 0 0 0 0 0 0 0 0 0 0 0 0 0 0 0 0 0 0 0 0 0 0 0 0 0 0 0 0 0 0 0 0 0 0
0 0 0 0 0 0 0 0 0 0 0 0 0 0 0 0 0 0 0 0 0 0 0 0 0 0 0 0 0 0 0 0 0 0 0 0 0 0 0 0 0 0 0
0 0 0 0 0 0 0 0 0 0 0 0 0 0 0 0 0 0 0 0 0 0 0 0 0 0 0 0 0 0 0 0 0 0 0 0 0 0 0 0 0 0 0
0 0 0 0 0 0 0 0 0 0 0 0 0 0 0 0 0 0 0 0 0 0 0 0 0 0 0 0 0 0 0 0 0 0 0 0 0 0 0 0 0 0 0
0 0 0 0 0 0 0 0 0 0 0 0 0 0 0 0 0 0 0 0 0 0 0 0 0 0 0 0 0 0 0 0 0 0 0 0 0 0 0 0 0 0 0
0 0 0 0 0 0 0 0 0 0 0 0 0 0 0 0 0 0 0 0 0 0 0 0 0 0 0 0 0 0 0 0 0 0 0 0 0 0 0 0 0 0 0
0 0 0 0 0 0 0 0 0 0 0 0 0 0 0 0 0 0 0 0 0 0 0 0 0 0 0 0 0 0 0 0 0 0 0 0 0 0 0 0 0 0 0
Height
5732 5729 5726 5723 5720 5716 5712 5707 5703 5698 5693 5688 5683 5678 5673 5668 5662 5657 5652 5646 5640 5634 5628 5623 5617 5610 5605 5598 5591 5585 5578 5571 5567 5566 5558 5550 5541 5533 5527 5519 5513 5508 5503
5723 5720 5717 5713 5709 5705 5701 5696 5691 5687 5681 5676 5671 5666 5660 5655 5649 5644 5638 5632 5626 5620 5614 5608 5601 5594 5588 5581 5574 5567 5559 5551 5545 5542 5538 5529 5520 5511 5503 5495 5488 5481 5476
5713 5710 5706 5703 5698 5694 5689 5685 5680 5675 5669 5664 5659 5653 5647 5642 5636 5630 5624 5618 5612 5605 5599 5592 5585 5578 5571 5563 5555 5548 5540 5531 5523 5517 5514 5506 5497 5487 5478 5471 5463 5457 5450
5703 5700 5696 5692 5687 5683 5678 5673 5668 5663 5657 5652 5646 5640 5634 5628 5622 5616 5610 5604 5597 5590 5583 5575 5567 5560 5552 5544 5536 5527 5518 5510 5501 5493 5487 5481 5473 5463 5453 5446 5441 5434 5428
5693 5689 5685 5680 5676 5671 5666 5661 5656 5650 5644 5639 5633 5626 5620 5614 5608 5601 5595 5589 5582 5575 5567 5558 5550 5541 5532 5522 5513 5505 5495 5486 5477 5468 5461 5455 5448 5439 5429 5422 5417 5413 5408
5682 5678 5673 5669 5664 5659 5654 5649 5643 5638 5632 5626 5619 5613 5606 5599 5593 5586 5579 5573 5565 5557 5549 5540 5531 5521 5511 5501 5491 5480 5470 5459 5450 5442 5435 5429 5423 5414 5406 5400 5395 5391 5390
5671 5666 5662 5657 5652 5647 5642 5637 5631 5625 5619 5613 5606 5599 5592 5585 5577 5570 5562 5555 5547 5538 5529 5520 5510 5500 5488 5478 5468 5458 5448 5435 5425 5416 5410 5405 5398 5392 5385 5381 5377 5374 5372
5660 5655 5650 5646 5641 5635 5630 5624 5618 5612 5606 5599 5592 5585 5578 5570 5561 5553 5545 5537 5529 5519 5508 5498 5487 5477 5465 5453 5444 5436 5426 5416 5405 5395 5388 5383 5378 5373 5367 5364 5361 5360 5359
5648 5643 5639 5634 5628 5623 5617 5611 5605 5599 5592 5585 5578 5570 5562 5554 5544 5535 5525 5517 5509 5499 5489 5477 5464 5454 5444 5431 5420 5411 5404 5396 5386 5378 5371 5366 5361 5356 5352 5350 5348 5347 5347
5637 5632 5627 5622 5616 5611 5605 5598 5592 5585 5578 5571 5563 5555 5546 5537 5527 5516 5505 5496 5488 5479 5469 5457 5444 5431 5420 5408 5397 5388 5381 5375 5369 5363 5357 5352 5348 5344 5341 5338 5337 5335 5335
5625 5620 5615 5609 5604 5598 5592 5585 5578 5571 5564 5557 5549 5540 5529 5518 5508 5496 5484 5472 5462 5454 5445 5435 5423 5411 5399 5388 5377 5369 5362 5356 5352 5348 5344 5340 5337 5334 5331 5329 5327 5325 5325
5613 5608 5603 5597 5591 5585 5578 5571 5564 5556 5548 5540 5531 5523 5512 5500 5488 5476 5464 5452 5439 5429 5421 5411 5401 5391 5380 5370 5361 5354 5347 5342 5338 5335 5332 5329 5326 5324 5322 5320 5318 5316 5315
5601 5596 5590 5584 5578 5571 5564 5557 5549 5540 5531 5522 5513 5504 5495 5483 5470 5456 5444 5432 5420 5408 5399 5390 5381 5371 5362 5355 5347 5340 5334 5330 5327 5324 5321 5319 5316 5314 5312 5311 5309 5308 5307
5590 5584 5578 5572 5565 5558 5550 5542 5533 5524 5514 5504 5493 5483 5474 5464 5451 5437 5426 5414 5403 5391 5381 5373 5364 5355 5347 5340 5334 5328 5323 5319 5316 5314 5311 5309 5307 5305 5303 5302 5301 5300 5299
5578 5572 5565 5558 5551 5544 5536 5526 5517 5507 5494 5484 5473 5462 5451 5442 5431 5417 5404 5393 5383 5373 5363 5356 5348 5341 5334 5328 5322 5317 5313 5310 5307 5304 5302 5300 5298 5296 5295 5294 5293 5292 5291
5566 5559 5552 5545 5537 5529 5520 5512 5501 5490 5479 5465 5452 5439 5428 5418 5407 5396 5385 5374 5364 5355 5346 5340 5333 5327 5321 5316 5312 5308 5304 5301 5298 5295 5293 5291 5290 5288 5287 5286 5285 5285 5284
5552 5545 5538 5530 5522 5513 5503 5494 5486 5477 5463 5449 5435 5421 5408 5397 5387 5376 5366 5357 5349 5340 5333 5326 5320 5315 5310 5305 5302 5299 5296 5293 5290 5287 5285 5284 5282 5281 5280 5279 5278 5278 5277
5538 5531 5523 5515 5505 5496 5485 5475 5464 5454 5446 5436 5421 5404 5391 5380 5370 5359 5350 5342 5335 5327 5320 5314 5309 5304 5300 5296 5293 5290 5287 5285 5282 5280 5278 5276 5275 5274 5273 5272 5272 5271 5270
5524 5516 5507 5498 5488 5478 5467 5456 5444 5433 5422 5412 5402 5389 5375 5364 5354 5344 5335 5327 5320 5315 5309 5303 5298 5294 5290 5287 5284 5282 5279 5277 5275 5273 5271 5270 5268 5267 5267 5266 5265 5264 5264
5509 5500 5490 5481 5471 5460 5448 5437 5425 5413 5401 5390 5379 5369 5358 5348 5340 5331 5323 5315 5308 5303 5298 5293 5289 5285 5282 5278 5276 5274 5272 5269 5267 5266 5264 5263 5262 5261 5260 5259 5258 5258 5257
5493 5484 5473 5463 5452 5441 5429 5417 5405 5393 5381 5371 5361 5350 5340 5332 5324 5317 5310 5303 5297 5292 5287 5283 5280 5276 5273 5270 5268 5266 5264 5262 5260 5259 5257 5256 5255 5254 5253 5252 5251 5251 5250
5476 5467 5456 5445 5433 5422 5409 5397 5385 5374 5363 5353 5344 5335 5326 5318 5311 5304 5298 5292 5287 5282 5278 5274 5271 5268 5265 5263 5261 5259 5257 5255 5253 5252 5250 5249 5248 5247 5246 5245 5245 5244 5243
5459 5448 5438 5426 5414 5402 5390 5378 5366 5355 5345 5336 5327 5320 5312 5305 5299 5293 5288 5283 5278 5273 5269 5266 5263 5261 5258 5255 5253 5251 5250 5248 5246 5245 5243 5242 5241 5240 5239 5238 5238 5237 5236
5440 5429 5418 5406 5394 5383 5371 5360 5349 5339 5329 5321 5313 5305 5299 5293 5287 5282 5278 5273 5269 5265 5261 5258 5256 5253 5251 5248 5246 5244 5243 5241 5239 5238 5237 5235 5234 5233 5232 5231 5230 5230 5229
5421 5410 5398 5386 5375 5364 5353 5342 5333 5323 5314 5306 5299 5293 5287 5281 5277 5272 5268 5264 5260 5257 5254 5251 5248 5246 5244 5241 5239 5238 5236 5234 5232 5231 5230 5228 5227 5226 5225 5224 5223 5222 5221
5402 5390 5378 5367 5356 5345 5335 5326 5317 5308 5301 5294 5287 5282 5276 5272 5267 5263 5259 5256 5252 5249 5246 5243 5241 5239 5237 5235 5233 5231 5229 5227 5225 5224 5222 5221 5220 5219 5217 5216 5215 5215 5214
Wind_Speed
39 41 42 43 45 47 48 49 50 51 52 52 53 53 54 55 55 56 56 57 58 58 59 60 61 63 64 66 67 69 70 72 72 71 73 75 77 79 81 82 83 84 84
40 42 44 45 47 48 49 50 51 51 52 52 53 54 54 55 56 56 57 58 58 59 61 62 63 65 66 67 69 70 72 74 76 76 76 78 80 82 83 84 85 85 84
42 43 45 46 48 49 49 50 50 51 52 53 54 54 55 56 57 57 58 59 60 61 62 63 65 67 68 70 71 73 75 78 80 81 81 82 83 83 84 84 84 83 81
43 44 46 47 48 48 49 50 51 52 53 54 55 55 56 57 58 58 59 60 61 62 64 66 68 70 72 73 75 77 80 82 83 84 84 83 83 82 82 81 79 77 74
44 45 46 47 48 49 50 51 51 52 54 54 55 56 57 58 59 60 60 61 63 65 67 69 71 73 75 78 80 82 84 85 86 86 85 83 80 79 77 76 73 69 65
45 46 47 48 48 49 50 51 52 53 54 55 56 56 57 58 60 61 63 65 67 69 71 73 75 77 80 82 84 85 87 87 86 85 83 80 76 74 71 68 64 59 54
46 46 47 48 49 50 51 52 52 53 54 55 56 57 58 61 63 65 67 69 70 73 75 77 79 81 83 84 85 85 85 84 83 82 79 74 70 66 63 58 54 50 45
46 46 47 48 49 50 51 52 53 54 55 56 57 59 61 64 66 68 70 72 74 76 78 81 82 82 83 85 84 83 81 79 77 75 71 66 61 57 54 50 46 42 38
46 47 48 49 49 50 51 53 53 55 56 57 59 62 64 67 70 72 75 77 78 79 81 82 82 83 83 83 82 80 76 72 69 65 61 57 53 49 46 43 39 37 33
46 47 48 49 50 51 52 53 54 56 58 60 62 65 68 71 74 76 79 81 81 81 81 81 82 82 81 80 78 74 70 65 60 54 50 47 44 41 39 38 36 34 31
46 47 48 49 50 51 53 54 56 58 61 63 66 68 71 74 77 79 81 83 83 82 81 81 79 78 76 73 70 66 62 57 51 46 42 40 37 35 34 34 33 32 30
45 47 48 49 51 52 54 56 59 62 64 67 70 72 74 77 79 81 82 83 83 83 81 78 75 73 69 65 62 58 54 49 44 40 37 35 33 32 31 31 30 30 29
46 47 48 50 52 54 57 59 62 65 68 71 74 75 77 79 80 82 82 82 82 80 77 74 70 66 62 58 55 51 47 43 39 37 34 32 31 30 29 29 29 28 28
46 48 50 52 54 57 59 62 66 69 72 74 76 79 80 80 81 82 81 80 78 75 72 68 63 59 56 52 48 44 41 38 36 33 32 30 29 29 28 27 27 26 25
48 50 52 54 57 60 63 66 69 72 75 77 80 82 82 82 82 82 80 77 73 70 67 62 57 53 49 45 42 38 36 34 33 31 30 28 27 26 26 25 24 24 23
50 52 55 57 60 63 66 69 71 74 77 79 82 83 84 83 81 78 75 71 68 65 61 56 51 48 44 40 36 34 32 32 30 29 28 27 25 24 23 23 22 22 22
53 55 58 61 64 67 70 73 74 76 78 80 82 83 83 80 77 74 70 66 62 59 55 50 46 43 39 36 33 31 30 29 28 28 26 25 24 23 22 22 21 21 21
56 59 62 65 68 71 74 76 78 80 80 80 80 80 79 76 72 68 65 61 57 53 50 46 43 39 36 33 31 29 28 27 27 26 25 23 22 22 21 21 21 21 20
59 62 65 68 71 74 76 78 80 82 82 81 78 76 73 70 66 63 60 57 52 48 45 42 39 36 33 31 30 28 27 26 25 24 23 22 21 21 21 21 21 20 20
62 65 68 71 74 76 79 81 82 83 82 79 76 72 68 64 60 57 53 50 47 44 41 38 35 33 31 30 28 26 26 25 24 23 22 22 21 21 20 20 20 20 20
66 68 72 75 77 79 81 83 83 81 79 75 71 67 63 59 55 51 48 45 42 40 37 35 32 30 29 27 26 25 24 24 23 22 22 21 21 21 20 20 20 20 20
69 72 75 78 80 82 83 82 80 78 74 70 65 60 57 54 51 47 44 41 39 37 35 32 29 28 27 26 25 24 23 23 22 22 21 21 21 20 20 20 20 20 20
73 76 78 80 82 82 81 79 76 72 68 64 60 56 52 49 46 43 40 38 36 34 32 29 27 26 25 24 24 22 22 22 22 21 21 21 21 21 20 20 20 20 20
77 79 81 81 81 80 77 74 70 67 63 59 55 51 48 45 41 39 37 35 33 31 29 27 26 25 24 23 22 22 21 21 22 21 21 21 21 20 20 21 21 21 21
80 81 81 80 78 76 72 68 65 61 57 53 49 46 43 40 38 36 34 33 31 29 27 26 25 24 23 22 22 22 22 22 22 21 21 21 20 21 21 21 21 21 21
81 80 79 76 74 70 67 63 60 55 51 47 45 42 39 37 35 33 32 30 29 27 26 24 23 22 22 21 21 22 22 22 22 22 21 21 21 21 21 21 21 22 22
Wind_Direction
285 287 289 291 293 294 296 297 298 299 299 300 300 300 300 300 300 300 300 300 300 299 298 298 297 297 297 297 297 297 297 297 296 296 296 296 296 295 295 294 294 293 292
287 289 290 292 294 296 297 298 298 299 300 300 301 301 301 301 301 301 301 301 300 300 299 299 299 298 298 298 298 298 298 298 298 297 297 297 296 296 295 295 294 293 293
289 291 293 294 295 296 298 299 299 300 301 301 302 302 302 302 301 301 301 301 301 301 300 300 300 300 300 299 299 299 299 299 299 298 298 298 297 296 295 295 294 293 292
291 293 294 295 296 297 299 299 300 301 301 302 302 302 302 302 302 302 302 302 302 302 302 302 301 301 301 300 300 300 300 299 299 299 299 298 297 296 295 294 293 292 291
294 295 296 296 297 298 299 300 301 302 302 302 303 303 303 303 303 303 303 303 303 303 303 303 302 302 302 301 301 301 300 300 300 300 299 299 298 296 295 293 292 291 290
295 296 296 297 298 299 300 301 301 302 303 303 303 303 304 304 304 304 304 304 304 304 304 304 303 303 303 302 302 302 302 302 301 301 300 299 298 296 295 293 292 291 289
295 296 297 298 299 300 301 301 302 303 303 304 304 304 304 305 305 305 305 305 306 305 305 304 304 304 303 303 303 302 302 302 302 301 300 299 298 297 295 293 292 291 290
296 297 298 299 300 301 302 302 303 303 304 304 305 305 306 306 306 306 306 306 306 306 305 305 305 305 304 304 303 303 303 302 301 300 300 299 297 296 294 293 292 290 289
297 298 299 300 300 301 302 303 304 305 305 306 306 306 307 307 307 307 306 306 306 306 306 306 305 305 305 305 304 304 303 302 301 300 299 298 297 295 294 293 291 290 289
298 299 299 300 301 302 303 304 305 306 306 307 307 307 307 307 307 307 307 307 307 306 307 306 306 306 306 306 305 305 304 303 301 299 298 297 296 294 293 292 291 290 289
298 299 301 302 303 304 304 305 306 307 307 307 308 308 308 308 308 308 308 308 308 308 308 307 307 307 307 306 306 305 305 304 302 300 299 297 295 293 292 292 291 291 290
300 301 302 303 304 305 306 307 307 308 308 308 308 309 309 309 309 309 308 308 308 309 309 309 308 308 307 307 306 305 304 303 302 301 300 298 295 293 292 291 290 290 290
302 303 304 305 306 306 307 308 308 308 309 309 309 309 310 310 309 309 309 309 309 309 309 309 309 308 308 307 306 305 304 303 302 301 300 298 295 294 292 290 290 290 289
303 304 305 306 307 307 308 309 309 309 309 310 310 310 310 310 310 309 309 309 309 309 309 309 309 308 307 306 305 303 302 302 301 300 299 297 295 294 292 290 289 288 288
305 306 306 307 308 308 309 310 310 310 311 311 311 311 311 311 310 310 310 310 310 309 309 309 309 308 307 306 304 303 301 300 300 300 299 298 295 293 292 291 290 288 287
306 307 307 308 308 309 310 310 311 311 311 312 312 312 312 312 311 311 310 310 310 310 310 310 310 309 308 306 304 301 300 300 300 301 300 298 295 294 292 291 290 289 288
306 307 308 309 309 310 310 311 311 311 312 312 312 312 312 312 312 311 311 310 310 310 310 310 310 310 308 306 304 302 300 300 301 301 299 297 295 293 292 291 291 290 288
307 308 309 310 310 310 311 311 312 312 312 312 312 311 311 311 311 311 310 310 310 310 309 309 309 309 307 306 303 302 300 300 301 300 299 297 295 293 292 291 291 290 288
308 308 309 310 311 311 312 312 312 313 313 313 312 311 311 310 311 311 310 310 310 309 309 308 308 307 306 304 303 301 300 300 300 299 297 296 295 293 291 290 290 289 287
308 309 310 311 311 312 312 312 313 313 313 313 313 312 311 310 311 310 310 309 309 308 308 307 306 305 304 303 301 301 300 300 299 298 296 295 293 292 291 290 289 288 287
309 310 311 311 312 312 312 313 313 313 313 313 313 312 312 312 311 311 311 310 309 308 307 306 305 304 303 302 301 301 300 298 298 297 295 294 292 291 290 290 289 288 286
310 310 311 312 312 312 313 313 313 313 313 313 312 312 311 311 311 311 311 310 309 308 307 306 304 303 302 301 301 301 299 298 297 296 295 294 293 291 290 289 289 287 285
310 311 312 312 312 313 313 313 313 313 313 312 312 311 311 310 310 309 309 309 308 307 307 305 304 303 302 302 302 300 298 298 297 296 294 294 293 291 289 288 287 286 284
311 312 312 312 313 313 313 313 313 312 312 312 311 311 310 310 309 308 308 308 308 307 306 304 304 303 302 301 301 300 299 298 298 297 295 294 293 291 289 288 287 286 284
312 312 312 313 313 313 313 313 313 312 312 312 311 311 311 310 309 308 308 308 307 306 305 303 303 302 301 300 300 300 300 299 298 296 295 294 292 291 290 289 288 286 285
312 312 313 313 313 313 313 313 313 313 312 311 311 311 310 309 309 308 308 307 306 306 304 303 303 303 301 301 301 301 300 299 298 297 296 293 291 290 289 289 288 286 285